Hourly Weather Kalgoorlie

Today, 8 August, Saturday

Time Temperature Precipitation Wind Pressure Humidity
00:00 +8°C° 0 mm 3 mps 734 mmHg 62%
01:00 +8°C° 0 mm 3 mps 734 mmHg 65%
02:00 +7°C° 0 mm 3 mps 734 mmHg 66%
03:00 +7°C° 0 mm 3 mps 734 mmHg 69%
04:00 +7°C° 0 mm 3 mps 734 mmHg 72%
05:00 +5°C° 0 mm 3 mps 734 mmHg 75%
06:00 +7°C° 0 mm 3 mps 734 mmHg 73%
07:00 +8°C° 0 mm 3 mps 734 mmHg 70%
08:00 +7°C° 0 mm 4 mps 735 mmHg 66%
09:00 +10°C° 0 mm 4 mps 735 mmHg 59%
10:00 +12°C° 0 mm 5 mps 734 mmHg 52%
11:00 +13°C° 0 mm 5 mps 734 mmHg 45%
12:00 +14°C° 0 mm 5 mps 733 mmHg 41%
13:00 +15°C° 0 mm 5 mps 733 mmHg 37%
14:00 +16°C° 0 mm 5 mps 732 mmHg 33%
15:00 +16°C° 0 mm 5 mps 732 mmHg 34%
16:00 +15°C° 0 mm 5 mps 731 mmHg 35%
17:00 +15°C° 0 mm 5 mps 731 mmHg 35%
18:00 +14°C° 0 mm 5 mps 731 mmHg 37%
19:00 +13°C° 0 mm 6 mps 732 mmHg 38%
20:00 +11°C° 0 mm 6 mps 732 mmHg 40%
21:00 +10°C° 0 mm 7 mps 732 mmHg 39%
22:00 +10°C° 0 mm 7 mps 731 mmHg 39%
23:00 +10°C° 0 mm 7 mps 731 mmHg 38%

Tomorrow, 9 August, Sunday

Time Temperature Precipitation Wind Pressure Humidity
00:00 +9°C° 0 mm 8 mps 731 mmHg 39%
01:00 +9°C° 0 mm 8 mps 730 mmHg 40%
02:00 +9°C° 0 mm 8 mps 730 mmHg 41%
03:00 +9°C° 0 mm 8 mps 730 mmHg 41%
04:00 +8°C° 0 mm 9 mps 729 mmHg 41%
05:00 +8°C° 0 mm 9 mps 729 mmHg 41%
06:00 +8°C° 0 mm 10 mps 729 mmHg 40%
07:00 +8°C° 0 mm 11 mps 728 mmHg 40%
08:00 +9°C° 0 mm 12 mps 728 mmHg 39%
09:00 +10°C° 0 mm 12 mps 727 mmHg 37%
10:00 +13°C° 0 mm 12 mps 727 mmHg 34%
11:00 +14°C° 0 mm 12 mps 726 mmHg 31%
12:00 +16°C° 0 mm 11 mps 725 mmHg 30%
13:00 +17°C° 0 mm 10 mps 724 mmHg 29%
14:00 +17°C° 0 mm 10 mps 723 mmHg 27%
15:00 +17°C° 0 mm 9 mps 723 mmHg 27%
16:00 +17°C° 0 mm 8 mps 722 mmHg 28%
17:00 +17°C° 0 mm 7 mps 722 mmHg 28%
18:00 +16°C° 0.1 mm 6 mps 721 mmHg 41%
19:00 +14°C° 0.1 mm 5 mps 721 mmHg 54%
20:00 +13°C° 0.1 mm 4 mps 720 mmHg 66%
21:00 +12°C° 3 mm 5 mps 720 mmHg 74%
22:00 +11°C° 3 mm 7 mps 720 mmHg 81%
23:00 +11°C° 3 mm 8 mps 720 mmHg 88%

Day after tomorrow, 10 August, Monday

Time Temperature Precipitation Wind Pressure Humidity
00:00 +11°C° 0.3 mm 8 mps 720 mmHg 85%
01:00 +11°C° 0.3 mm 7 mps 719 mmHg 82%
02:00 +11°C° 0.3 mm 7 mps 719 mmHg 79%
03:00 +10°C° 0 mm 7 mps 719 mmHg 81%
04:00 +10°C° 0 mm 7 mps 719 mmHg 83%
05:00 +9°C° 0 mm 7 mps 719 mmHg 85%
06:00 +10°C° 0 mm 8 mps 719 mmHg 83%
07:00 +10°C° 0 mm 9 mps 719 mmHg 81%
08:00 +9°C° 0 mm 10 mps 719 mmHg 80%
09:00 +11°C° 0 mm 10 mps 720 mmHg 74%
10:00 +12°C° 0 mm 10 mps 720 mmHg 68%
11:00 +13°C° 0 mm 10 mps 720 mmHg 63%
12:00 +13°C° 0.2 mm 11 mps 720 mmHg 63%
13:00 +12°C° 0.2 mm 11 mps 719 mmHg 64%
14:00 +12°C° 0.2 mm 12 mps 719 mmHg 65%
15:00 +12°C° 0 mm 11 mps 719 mmHg 63%
16:00 +13°C° 0 mm 10 mps 719 mmHg 62%
17:00 +13°C° 0 mm 9 mps 720 mmHg 60%
18:00 +13°C° 0 mm 9 mps 720 mmHg 64%
19:00 +12°C° 0 mm 8 mps 720 mmHg 67%
20:00 +12°C° 0 mm 7 mps 720 mmHg 71%
21:00 +11°C° 0 mm 8 mps 720 mmHg 73%
22:00 +11°C° 0 mm 8 mps 721 mmHg 76%
23:00 +11°C° 0 mm 9 mps 721 mmHg 78%

11 August, Tuesday

Time Temperature Precipitation Wind Pressure Humidity
00:00 +11°C° 0 mm 8 mps 721 mmHg 80%
01:00 +10°C° 0 mm 8 mps 721 mmHg 81%
02:00 +10°C° 0 mm 8 mps 721 mmHg 82%
03:00 +9°C° 0 mm 8 mps 721 mmHg 83%
04:00 +9°C° 0 mm 8 mps 721 mmHg 84%
05:00 +9°C° 0 mm 8 mps 721 mmHg 85%
06:00 +9°C° 0 mm 8 mps 722 mmHg 84%
07:00 +10°C° 0 mm 9 mps 722 mmHg 82%
08:00 +10°C° 0 mm 9 mps 722 mmHg 80%
09:00 +11°C° 0 mm 9 mps 723 mmHg 75%
10:00 +12°C° 0 mm 10 mps 723 mmHg 71%
11:00 +13°C° 0 mm 10 mps 723 mmHg 66%
12:00 +13°C° 0 mm 9 mps 723 mmHg 63%
13:00 +15°C° 0 mm 9 mps 722 mmHg 59%
14:00 +15°C° 0 mm 9 mps 722 mmHg 56%
15:00 +15°C° 0 mm 8 mps 722 mmHg 58%
16:00 +15°C° 0 mm 8 mps 723 mmHg 60%
17:00 +15°C° 0 mm 7 mps 723 mmHg 61%
18:00 +14°C° 0 mm 7 mps 723 mmHg 64%
19:00 +14°C° 0 mm 7 mps 724 mmHg 66%
20:00 +12°C° 0 mm 7 mps 724 mmHg 68%
21:00 +12°C° 0 mm 7 mps 724 mmHg 68%
22:00 +12°C° 0 mm 7 mps 725 mmHg 68%
23:00 +12°C° 0 mm 7 mps 725 mmHg 68%

12 August, Wednesday

Time Temperature Precipitation Wind Pressure Humidity
00:00 +11°C° 0 mm 6 mps 725 mmHg 69%
01:00 +10°C° 0 mm 6 mps 724 mmHg 71%
02:00 +10°C° 0 mm 5 mps 724 mmHg 73%
03:00 +10°C° 0 mm 5 mps 724 mmHg 70%
04:00 +10°C° 0 mm 5 mps 725 mmHg 67%
05:00 +10°C° 0 mm 5 mps 725 mmHg 64%
06:00 +10°C° 0 mm 5 mps 725 mmHg 61%
07:00 +10°C° 0 mm 6 mps 726 mmHg 59%
08:00 +10°C° 0 mm 6 mps 726 mmHg 57%
09:00 +11°C° 0 mm 6 mps 726 mmHg 54%
10:00 +13°C° 0 mm 6 mps 726 mmHg 51%
11:00 +14°C° 0 mm 6 mps 726 mmHg 47%
12:00 +14°C° 0 mm 6 mps 726 mmHg 46%
13:00 +15°C° 0 mm 6 mps 726 mmHg 44%
14:00 +15°C° 0 mm 6 mps 725 mmHg 43%
15:00 +15°C° 0 mm 6 mps 725 mmHg 45%
16:00 +14°C° 0 mm 6 mps 726 mmHg 48%
17:00 +14°C° 0 mm 6 mps 726 mmHg 50%
18:00 +13°C° 0 mm 6 mps 726 mmHg 53%
19:00 +12°C° 0 mm 5 mps 727 mmHg 56%
20:00 +10°C° 0 mm 5 mps 727 mmHg 59%
21:00 +10°C° 0 mm 5 mps 728 mmHg 61%
22:00 +9°C° 0 mm 5 mps 728 mmHg 64%
23:00 +8°C° 0 mm 4 mps 728 mmHg 66%

13 August, Thursday

Time Temperature Precipitation Wind Pressure Humidity
00:00 +8°C° 0 mm 4 mps 728 mmHg 69%
01:00 +8°C° 0 mm 4 mps 728 mmHg 71%
02:00 +7°C° 0 mm 4 mps 728 mmHg 74%
03:00 +7°C° 0 mm 4 mps 728 mmHg 76%
04:00 +6°C° 0 mm 4 mps 728 mmHg 79%
05:00 +6°C° 0 mm 4 mps 728 mmHg 82%
06:00 +6°C° 0 mm 4 mps 729 mmHg 81%
07:00 +7°C° 0 mm 4 mps 729 mmHg 81%
08:00 +7°C° 0 mm 5 mps 730 mmHg 80%
09:00 +8°C° 0 mm 5 mps 730 mmHg 72%
10:00 +10°C° 0 mm 5 mps 730 mmHg 64%
11:00 +13°C° 0 mm 5 mps 730 mmHg 56%
12:00 +13°C° 0 mm 5 mps 729 mmHg 51%
13:00 +13°C° 0 mm 5 mps 729 mmHg 47%
14:00 +14°C° 0 mm 5 mps 728 mmHg 42%
15:00 +13°C° 0 mm 5 mps 729 mmHg 42%
16:00 +13°C° 0 mm 5 mps 729 mmHg 42%
17:00 +13°C° 0 mm 5 mps 729 mmHg 42%
18:00 +12°C° 0 mm 5 mps 730 mmHg 47%
19:00 +10°C° 0 mm 5 mps 730 mmHg 51%
20:00 +10°C° 0 mm 4 mps 730 mmHg 55%
21:00 +8°C° 0 mm 4 mps 731 mmHg 59%
22:00 +8°C° 0 mm 4 mps 731 mmHg 62%
23:00 +7°C° 0 mm 4 mps 731 mmHg 66%
Show more